User: anonymous   Login
Location: Ch�tillon
(48.8024°N, 2.2935°E)
Time: 14:22:18
(UTC+00:00)
Language:

Cosmos 1697 Rocket - Orbit

View from above orbital plane
View from above orbital plane
View from above satellite
View from above satellite

Ground track
Ground track

The orbit data is extracted from the following two-line orbital elements,

1 16182U 85097B   22023.85467565 -.00000099  00000-0 -25576-4 0  9991
2 16182  71.0025  69.7845 0006589  14.0000 159.3537 14.16264213873996
Epoch (UTC): 23 January 2022 20:30:43
Eccentricity: 0.0006589
inclination: 71.0025°
perigee height: 833 km
apogee height: 843 km
right ascension of ascending node: 69.7845°
argument of perigee: 14.0000°
revolutions per day: 14.16264213
mean anomaly at epoch: 159.3537°
orbit number at epoch: 87399

The dashed part of the orbit path shows where the satellite is in the earth's shadow,  

DLR